Weather History for KSQL - March, 2013

Change the Weather History Date:

Sunday, March 10, 2013

  Actual Average Record
Temperature  
Mean Temperature 55 °F -  
Max Temperature 68 °F 63 °F 80 °F (2004)
Min Temperature 42 °F 43 °F 32 °F (1951)
Degree Days  
Heating Degree Days 10    
Growing Degree Days 5 (Base 50)    
Moisture  
Dew Point 40 °F    
Average Humidity 68    
Maximum Humidity 87    
Minimum Humidity 26    
Precipitation  
Precipitation 0.00 in - - ()
Sea Level Pressure  
Sea Level Pressure 30.31 in    
Wind  
Wind Speed 2 mph (NNW)    
Max Wind Speed 9 mph    
Max Gust Speed -    
Visibility 10 miles    
Events      
Averages and records for this station are not official NWS values.
T = Trace of Precipitation, MM = Missing Value Source: NWS Daily Summary

Daily Weather History Graph

Daily Weather History Graph

Search for Another Location

Airport or City:

Trip Planner

Search our weather history database for the weather conditions in past years. The results will help you decide how hot, cold, wet, or windy it might be!

Date:

Astronomy

Mar. 10, 2013 Rise Set
Actual Time 7:26 AM PDT 7:11 PM PDT
Civil Twilight 7:00 AM PDT 7:37 PM PDT
Nautical Twilight 6:30 AM PDT 8:08 PM PDT
Astronomical Twilight 6:00 AM PDT 8:38 PM PDT
Moon 6:29 AM PDT (3/10) 6:25 PM PDT (3/10)
Length of Visible Light 12h 37m
Length of Day
11h 44m
Waning Crescent, 1% of the Moon is Illuminated
Mar 10
Waning Crescent
Mar 11
New
Mar 19
First Quarter
Mar 27
Full
Apr 2
Last Quarter

Hourly Weather History & Observations

Time (PDT) Temp. Windchill Dew Point Humidity Pressure Visibility Wind Dir Wind Speed Gust Speed Precip Events Conditions
12:10 AM 48.2 °F - 39.2 °F 71% 30.33 in 10.0 mi Calm Calm - N/A   Clear
12:30 AM 48.2 °F - 39.2 °F 71% 30.32 in 10.0 mi Calm Calm - N/A   Clear
12:50 AM 48.2 °F - 39.2 °F 71% 30.32 in 10.0 mi Calm Calm - N/A   Clear
1:10 AM 46.4 °F - 39.2 °F 76% 30.32 in 10.0 mi Calm Calm - N/A   Clear
1:30 AM 46.4 °F 45.2 °F 39.2 °F 76% 30.33 in 10.0 mi SSE 3.5 mph - N/A   Clear
1:50 AM 46.4 °F 45.2 °F 37.4 °F 71% 30.33 in 10.0 mi SW 3.5 mph - N/A   Clear
3:10 AM 46.4 °F - 39.2 °F 76% 30.32 in 10.0 mi Calm Calm - N/A   Clear
3:30 AM 46.4 °F 44.3 °F 39.2 °F 76% 30.32 in 10.0 mi NW 4.6 mph - N/A   Clear
3:50 AM 46.4 °F - 39.2 °F 76% 30.32 in 10.0 mi Calm Calm - N/A   Clear
4:10 AM 46.4 °F - 39.2 °F 76% 30.32 in 5.0 mi Calm Calm - N/A   Haze
4:30 AM 44.6 °F - 39.2 °F 81% 30.31 in 10.0 mi Calm Calm - N/A   Clear
5:30 AM 44.6 °F - 37.4 °F 76% 30.32 in 10.0 mi Calm Calm - N/A   Clear
5:50 AM 44.6 °F - 37.4 °F 76% 30.32 in 10.0 mi Calm Calm - N/A   Clear
6:10 AM 44.6 °F 43.1 °F 39.2 °F 81% 30.33 in 10.0 mi NW 3.5 mph - N/A   Clear
6:30 AM 44.6 °F 42.2 °F 41.0 °F 87% 30.33 in 10.0 mi SE 4.6 mph - N/A   Clear
6:47 AM 42.8 °F 40.1 °F 37.4 °F 81% 30.34 in 10.0 mi SW 4.6 mph - N/A   Clear
6:50 AM 42.8 °F 40.1 °F 37.4 °F 81% 30.34 in 6.0 mi SW 4.6 mph - N/A   Haze
7:47 AM 44.6 °F - 39.2 °F 81% 30.34 in 10.0 mi Calm Calm - N/A   Scattered Clouds
8:50 AM 48.2 °F - 41.0 °F 76% 30.35 in 10.0 mi Calm Calm - N/A   Scattered Clouds
9:57 AM 50.0 °F - 46.4 °F 87% 30.37 in 10.0 mi Calm Calm - N/A   Scattered Clouds
10:59 AM 55.4 °F - 46.4 °F 72% 30.36 in 10.0 mi Calm Calm - N/A   Mostly Cloudy
11:59 AM 59.0 °F - 46.4 °F 63% 30.35 in 10.0 mi Calm Calm - N/A   Mostly Cloudy
12:52 PM 62.6 °F - 32.0 °F 32% 30.34 in 10.0 mi North 4.6 mph - N/A   Mostly Cloudy
1:47 PM 64.4 °F - 32.0 °F 30% 30.31 in 10.0 mi NNE 3.5 mph - N/A   Mostly Cloudy
2:50 PM 64.4 °F - 37.4 °F 37% 30.29 in 10.0 mi Variable 4.6 mph - N/A   Mostly Cloudy
3:55 PM 68.0 °F - 32.0 °F 26% 30.28 in 10.0 mi North 5.8 mph - N/A   Scattered Clouds
4:47 PM 66.2 °F - 39.2 °F 37% 30.27 in 10.0 mi NNE 5.8 mph - N/A   Partly Cloudy
5:55 PM 66.2 °F - 39.2 °F 37% 30.26 in 10.0 mi North 8.1 mph - N/A   Scattered Clouds
6:47 PM 66.2 °F - 39.2 °F 37% 30.26 in 10.0 mi NW 8.1 mph - N/A   Scattered Clouds
7:47 PM 60.8 °F - 39.2 °F 45% 30.27 in 10.0 mi WNW 9.2 mph - N/A   Scattered Clouds
8:47 PM 55.4 °F - 46.4 °F 72% 30.28 in 10.0 mi North 6.9 mph - N/A   Clear
9:10 PM 53.6 °F - 46.4 °F 77% 30.29 in 10.0 mi North 5.8 mph - N/A   Clear
9:30 PM 51.8 °F - 46.4 °F 82% 30.28 in 10.0 mi Calm Calm - N/A   Partly Cloudy
10:10 PM 51.8 °F - 46.4 °F 82% 30.29 in 10.0 mi Calm Calm - N/A   Clear
10:30 PM 51.8 °F - 46.4 °F 82% 30.29 in 10.0 mi NW 3.5 mph - N/A   Clear
10:50 PM 51.8 °F - 44.6 °F 76% 30.29 in 10.0 mi Calm Calm - N/A   Clear
11:10 PM 51.8 °F - 44.6 °F 76% 30.29 in 10.0 mi Calm Calm - N/A   Clear
11:30 PM 50.0 °F - 41.0 °F 71% 30.29 in 10.0 mi Calm Calm - N/A   Clear
11:50 PM 50.0 °F - 41.0 °F 71% 30.28 in 10.0 mi Calm Calm - N/A   Clear
12:10 AM 50.0 °F - 41.0 °F 71% 30.28 in 10.0 mi Calm Calm - N/A   Clear
12:30 AM 50.0 °F - 41.0 °F 71% 30.28 in 10.0 mi Calm Calm - N/A   Clear
12:50 AM 48.2 °F - 41.0 °F 76% 30.27 in 10.0 mi Calm Calm - N/A   Clear